Location: Meetinghouse Hill
(42.7686°N, 71.7752°W)
Time: 03:22:58

N. Korean satellite - Visible Passes

Search period start: 23 March 2018 00:00
Search period end: 02 April 2018 00:00
Orbit: 460 x 512 km, 97.2° (Epoch: 22 March)

Date Brightness Start Highest point End Pass type
(mag) Time Alt. Az. Time Alt. Az. Time Alt. Az.
24 Mar 10.7 06:17:08 10° ENE 06:18:02 11° E 06:18:56 10° ESE visible
25 Mar 9.9 19:35:34 10° SW 19:38:03 17° W 19:40:34 10° NW visible
29 Mar 9.8 19:33:34 10° SW 19:36:10 18° W 19:38:47 10° NW visible
